Terug naar catalogus

STARLINK-32476

ActiefCommunicatieVLEO
NORAD 61550·PAYLOAD·🇺🇸 United States

Gelanceerd Oct 15, 2024 vanaf Vandenberg Space Force Base

Loading…

Volgende Passages (komende 24 uur)

TLE

VersSource: CelesTrak SupGP

Epoch: Sep 15, 2026, 03:40 UTC

1 61550C 24184U   26258.15326389 -.00208170  00000+0 -61492-2 0  2587
2 61550  53.1577 210.7663 0001390  89.3799 102.6878 15.34501585    10

Volg STARLINK-32476 in realtime met AllMySat

Download on the App Store